Time,TemperatureF,DewpointF,PressureIn,WindDirection,WindDirectionDegrees,WindSpeedMPH,WindSpeedGustMPH,Humidity,HourlyPrecipIn,Conditions,Clouds,dailyrainin,SolarRadiationWatts/m^2,SoftwareType,DateUTC
2013-03-30 00:10:00,68.9,57.0,30.23,East,83,10.0,-999.0,67,-99.99,,,0.00,0,weatherlink.com 1.10,2013-03-30 04:10:00,
2013-03-30 00:25:00,68.8,56.0,30.23,East,99,14.0,-999.0,64,-99.99,,,0.00,0,weatherlink.com 1.10,2013-03-30 04:25:00,
2013-03-30 00:40:00,68.9,58.0,30.23,East,80,8.0,-999.0,68,-99.99,,,0.00,0,weatherlink.com 1.10,2013-03-30 04:40:00,
2013-03-30 00:55:00,68.8,56.0,30.23,East,84,6.0,-999.0,64,-99.99,,,0.00,0,weatherlink.com 1.10,2013-03-30 04:55:00,
2013-03-30 01:11:00,68.7,56.0,30.22,East,101,11.0,-999.0,64,-99.99,,,0.00,0,weatherlink.com 1.10,2013-03-30 05:11:00,
2013-03-30 01:26:00,68.7,56.0,30.22,ESE,102,9.0,-999.0,65,-99.99,,,0.00,0,weatherlink.com 1.10,2013-03-30 05:26:00,
2013-03-30 01:41:00,68.6,56.0,30.21,East,101,9.0,-999.0,65,-99.99,,,0.00,0,weatherlink.com 1.10,2013-03-30 05:41:00,
2013-03-30 01:56:00,68.6,56.0,30.21,ESE,107,4.0,-999.0,65,-99.99,,,0.00,0,weatherlink.com 1.10,2013-03-30 05:56:00,
2013-03-30 02:11:00,68.6,58.0,30.21,East,80,8.0,-999.0,68,-99.99,,,0.00,0,weatherlink.com 1.10,2013-03-30 06:11:00,
2013-03-30 02:26:00,68.5,56.0,30.20,ESE,103,8.0,-999.0,65,-99.99,,,0.00,0,weatherlink.com 1.10,2013-03-30 06:26:00,
2013-03-30 02:41:00,68.6,58.0,30.20,East,88,5.0,-999.0,68,-99.99,,,0.00,0,weatherlink.com 1.10,2013-03-30 06:41:00,
2013-03-30 03:41:00,68.5,57.0,30.19,East,101,9.0,-999.0,66,-99.99,,,0.00,0,weatherlink.com 1.10,2013-03-30 07:41:00,
2013-03-30 04:41:00,68.4,56.0,30.19,East,100,5.0,-999.0,65,-99.99,,,0.00,0,weatherlink.com 1.10,2013-03-30 08:41:00,
2013-03-30 04:56:00,68.3,57.0,30.19,East,85,7.0,-999.0,67,-99.99,,,0.00,0,weatherlink.com 1.10,2013-03-30 08:56:00,
2013-03-30 05:11:00,68.3,56.0,30.19,ENE,76,7.0,-999.0,64,-99.99,,,0.00,0,weatherlink.com 1.10,2013-03-30 09:11:00,
2013-03-30 05:41:00,68.3,56.0,30.20,ENE,73,7.0,-999.0,64,-99.99,,,0.00,0,weatherlink.com 1.10,2013-03-30 09:41:00,
2013-03-30 05:56:00,68.3,56.0,30.20,East,79,13.0,-999.0,64,-99.99,,,0.00,0,weatherlink.com 1.10,2013-03-30 09:56:00,
2013-03-30 06:11:00,68.2,57.0,30.20,ENE,61,12.0,-999.0,67,-99.99,,,0.00,0,weatherlink.com 1.10,2013-03-30 10:11:00,
2013-03-30 06:26:00,68.1,56.0,30.20,ENE,78,13.0,-999.0,66,-99.99,,,0.00,0,weatherlink.com 1.10,2013-03-30 10:26:00,
2013-03-30 06:41:00,68.2,56.0,30.21,ENE,74,8.0,-999.0,66,-99.99,,,0.00,0,weatherlink.com 1.10,2013-03-30 10:41:00,
2013-03-30 06:56:00,68.1,56.0,30.21,East,87,7.0,-999.0,66,-99.99,,,0.00,0,weatherlink.com 1.10,2013-03-30 10:56:00,
2013-03-30 07:11:00,68.2,55.0,30.21,ENE,77,8.0,-999.0,64,-99.99,,,0.00,0,weatherlink.com 1.10,2013-03-30 11:11:00,
2013-03-30 07:26:00,68.2,56.0,30.21,East,81,7.0,-999.0,65,-99.99,,,0.00,12,weatherlink.com 1.10,2013-03-30 11:26:00,
2013-03-30 08:11:00,69.1,56.0,30.23,ENE,75,7.0,-999.0,63,-99.99,,,0.00,114,weatherlink.com 1.10,2013-03-30 12:11:00,
2013-03-30 08:26:00,68.9,57.0,30.24,ENE,73,14.0,-999.0,66,-99.99,,,0.00,51,weatherlink.com 1.10,2013-03-30 12:26:00,
2013-03-30 08:41:00,69.0,57.0,30.25,East,79,11.0,-999.0,66,-99.99,,,0.00,62,weatherlink.com 1.10,2013-03-30 12:41:00,
2013-03-30 08:57:00,69.7,57.0,30.25,East,84,8.0,-999.0,64,-99.99,,,0.00,192,weatherlink.com 1.10,2013-03-30 12:57:00,
2013-03-30 09:11:00,69.7,58.0,30.25,ENE,78,11.0,-999.0,67,-99.99,,,0.00,121,weatherlink.com 1.10,2013-03-30 13:11:00,
2013-03-30 09:27:00,70.3,56.0,30.24,East,84,8.0,-999.0,61,-99.99,,,0.00,65,weatherlink.com 1.10,2013-03-30 13:27:00,
2013-03-30 09:42:00,71.0,56.0,30.25,East,88,7.0,-999.0,60,-99.99,,,0.00,76,weatherlink.com 1.10,2013-03-30 13:42:00,
2013-03-30 09:57:00,70.5,57.0,30.25,East,81,11.0,-999.0,63,-99.99,,,0.00,63,weatherlink.com 1.10,2013-03-30 13:57:00,
2013-03-30 10:12:00,70.7,57.0,30.25,ENE,78,12.0,-999.0,62,-99.99,,,0.00,70,weatherlink.com 1.10,2013-03-30 14:12:00,
2013-03-30 10:27:00,71.1,57.0,30.26,East,84,10.0,-999.0,62,-99.99,,,0.00,81,weatherlink.com 1.10,2013-03-30 14:27:00,
2013-03-30 10:42:00,71.0,57.0,30.25,ENE,77,11.0,-999.0,62,-99.99,,,0.00,77,weatherlink.com 1.10,2013-03-30 14:42:00,
2013-03-30 10:57:00,71.2,57.0,30.25,East,82,11.0,-999.0,62,-99.99,,,0.00,83,weatherlink.com 1.10,2013-03-30 14:57:00,
2013-03-30 11:12:00,71.3,58.0,30.25,East,86,8.0,-999.0,63,-99.99,,,0.00,109,weatherlink.com 1.10,2013-03-30 15:12:00,
2013-03-30 11:27:00,71.3,58.0,30.25,ENE,72,11.0,-999.0,63,-99.99,,,0.00,313,weatherlink.com 1.10,2013-03-30 15:27:00,
2013-03-30 11:42:00,71.6,58.0,30.25,East,86,5.0,-999.0,63,-99.99,,,0.00,816,weatherlink.com 1.10,2013-03-30 15:42:00,
2013-03-30 11:57:00,71.7,58.0,30.25,ENE,71,12.0,-999.0,63,-99.99,,,0.00,872,weatherlink.com 1.10,2013-03-30 15:57:00,
2013-03-30 12:12:00,71.8,58.0,30.25,East,86,6.0,-999.0,62,-99.99,,,0.00,884,weatherlink.com 1.10,2013-03-30 16:12:00,
2013-03-30 12:27:00,72.0,58.0,30.25,East,85,8.0,-999.0,61,-99.99,,,0.00,904,weatherlink.com 1.10,2013-03-30 16:27:00,
2013-03-30 12:42:00,71.9,58.0,30.24,East,86,10.0,-999.0,62,-99.99,,,0.00,949,weatherlink.com 1.10,2013-03-30 16:42:00,
2013-03-30 12:57:00,72.1,60.0,30.24,East,80,10.0,-999.0,65,-99.99,,,0.00,932,weatherlink.com 1.10,2013-03-30 16:57:00,
2013-03-30 13:12:00,71.8,59.0,30.23,ENE,64,11.0,-999.0,64,-99.99,,,0.00,940,weatherlink.com 1.10,2013-03-30 17:12:00,
2013-03-30 13:27:00,72.0,57.0,30.22,ENE,77,12.0,-999.0,60,-99.99,,,0.00,949,weatherlink.com 1.10,2013-03-30 17:27:00,
2013-03-30 13:42:00,72.1,57.0,30.22,ENE,63,11.0,-999.0,59,-99.99,,,0.00,951,weatherlink.com 1.10,2013-03-30 17:42:00,
2013-03-30 13:57:00,72.0,57.0,30.22,ENE,74,7.0,-999.0,60,-99.99,,,0.00,949,weatherlink.com 1.10,2013-03-30 17:57:00,
2013-03-30 14:12:00,72.1,58.0,30.21,ENE,70,8.0,-999.0,62,-99.99,,,0.00,942,weatherlink.com 1.10,2013-03-30 18:12:00,
2013-03-30 14:27:00,72.5,56.0,30.21,ENE,67,12.0,-999.0,57,-99.99,,,0.00,932,weatherlink.com 1.10,2013-03-30 18:27:00,
2013-03-30 14:42:00,72.1,57.0,30.19,East,81,12.0,-999.0,60,-99.99,,,0.00,914,weatherlink.com 1.10,2013-03-30 18:42:00,
2013-03-30 14:57:00,72.1,55.0,30.19,ENE,64,10.0,-999.0,55,-99.99,,,0.00,896,weatherlink.com 1.10,2013-03-30 18:57:00,
2013-03-30 15:12:00,72.2,55.0,30.19,East,84,8.0,-999.0,56,-99.99,,,0.00,870,weatherlink.com 1.10,2013-03-30 19:12:00,
2013-03-30 15:27:00,72.5,57.0,30.18,East,80,10.0,-999.0,58,-99.99,,,0.00,840,weatherlink.com 1.10,2013-03-30 19:27:00,
2013-03-30 15:42:00,72.4,57.0,30.18,ENE,73,8.0,-999.0,59,-99.99,,,0.00,795,weatherlink.com 1.10,2013-03-30 19:42:00,
2013-03-30 15:57:00,72.4,57.0,30.18,ENE,74,8.0,-999.0,58,-99.99,,,0.00,747,weatherlink.com 1.10,2013-03-30 19:57:00,
2013-03-30 16:12:00,72.3,57.0,30.17,ENE,78,7.0,-999.0,58,-99.99,,,0.00,694,weatherlink.com 1.10,2013-03-30 20:12:00,
2013-03-30 16:27:00,72.3,56.0,30.16,East,84,6.0,-999.0,57,-99.99,,,0.00,610,weatherlink.com 1.10,2013-03-30 20:27:00,
2013-03-30 16:42:00,72.5,57.0,30.16,ENE,76,7.0,-999.0,58,-99.99,,,0.00,520,weatherlink.com 1.10,2013-03-30 20:42:00,
2013-03-30 16:57:00,72.1,56.0,30.16,ENE,74,6.0,-999.0,57,-99.99,,,0.00,408,weatherlink.com 1.10,2013-03-30 20:57:00,
2013-03-30 17:12:00,72.2,56.0,30.16,ENE,78,6.0,-999.0,58,-99.99,,,0.00,288,weatherlink.com 1.10,2013-03-30 21:12:00,
2013-03-30 17:27:00,72.1,56.0,30.16,East,100,8.0,-999.0,58,-99.99,,,0.00,193,weatherlink.com 1.10,2013-03-30 21:27:00,
2013-03-30 17:42:00,71.9,57.0,30.16,East,84,5.0,-999.0,60,-99.99,,,0.00,132,weatherlink.com 1.10,2013-03-30 21:42:00,
2013-03-30 17:57:00,71.5,58.0,30.15,East,99,6.0,-999.0,63,-99.99,,,0.00,278,weatherlink.com 1.10,2013-03-30 21:57:00,
2013-03-30 18:12:00,71.4,59.0,30.15,East,82,6.0,-999.0,64,-99.99,,,0.00,295,weatherlink.com 1.10,2013-03-30 22:12:00,
2013-03-30 18:27:00,71.1,58.0,30.15,East,93,11.0,-999.0,63,-99.99,,,0.00,237,weatherlink.com 1.10,2013-03-30 22:27:00,
2013-03-30 18:42:00,70.9,59.0,30.15,East,84,8.0,-999.0,66,-99.99,,,0.00,163,weatherlink.com 1.10,2013-03-30 22:42:00,
2013-03-30 18:58:00,70.5,58.0,30.16,East,89,8.0,-999.0,65,-99.99,,,0.00,98,weatherlink.com 1.10,2013-03-30 22:58:00,
2013-03-30 19:13:00,70.2,58.0,30.16,ENE,76,6.0,-999.0,66,-99.99,,,0.00,46,weatherlink.com 1.10,2013-03-30 23:13:00,
2013-03-30 19:28:00,69.8,58.0,30.16,East,96,6.0,-999.0,66,-99.99,,,0.00,12,weatherlink.com 1.10,2013-03-30 23:28:00,
2013-03-30 19:43:00,69.5,57.0,30.16,East,101,5.0,-999.0,65,-99.99,,,0.00,0,weatherlink.com 1.10,2013-03-30 23:43:00,
2013-03-30 19:58:00,69.4,57.0,30.16,East,94,4.0,-999.0,66,-99.99,,,0.00,0,weatherlink.com 1.10,2013-03-30 23:58:00,
2013-03-30 20:13:00,69.3,58.0,30.16,East,98,7.0,-999.0,67,-99.99,,,0.00,0,weatherlink.com 1.10,2013-03-31 00:13:00,
2013-03-30 20:28:00,69.3,58.0,30.17,East,98,6.0,-999.0,68,-99.99,,,0.00,0,weatherlink.com 1.10,2013-03-31 00:28:00,
2013-03-30 20:43:00,69.4,59.0,30.17,ESE,103,4.0,-999.0,69,-99.99,,,0.00,0,weatherlink.com 1.10,2013-03-31 00:43:00,
2013-03-30 20:58:00,69.4,59.0,30.18,ESE,104,7.0,-999.0,69,-99.99,,,0.00,0,weatherlink.com 1.10,2013-03-31 00:58:00,
2013-03-30 21:13:00,69.5,59.0,30.18,ESE,104,6.0,-999.0,69,-99.99,,,0.00,0,weatherlink.com 1.10,2013-03-31 01:13:00,
2013-03-30 21:28:00,69.5,58.0,30.18,ESE,103,7.0,-999.0,68,-99.99,,,0.00,0,weatherlink.com 1.10,2013-03-31 01:28:00,
2013-03-30 21:43:00,69.6,59.0,30.18,ESE,103,7.0,-999.0,69,-99.99,,,0.00,0,weatherlink.com 1.10,2013-03-31 01:43:00,
2013-03-30 21:58:00,69.7,59.0,30.19,ESE,104,4.0,-999.0,68,-99.99,,,0.00,0,weatherlink.com 1.10,2013-03-31 01:58:00,
2013-03-30 22:13:00,69.8,58.0,30.19,ESE,102,4.0,-999.0,67,-99.99,,,0.00,0,weatherlink.com 1.10,2013-03-31 02:13:00,
2013-03-30 22:28:00,69.7,59.0,30.19,ESE,103,6.0,-999.0,68,-99.99,,,0.00,0,weatherlink.com 1.10,2013-03-31 02:28:00,
2013-03-30 22:43:00,69.8,59.0,30.20,East,101,4.0,-999.0,69,-99.99,,,0.00,0,weatherlink.com 1.10,2013-03-31 02:43:00,
2013-03-30 22:58:00,70.2,60.0,30.20,ESE,105,8.0,-999.0,70,-99.99,,,0.00,0,weatherlink.com 1.10,2013-03-31 02:58:00,
2013-03-30 23:13:00,70.3,60.0,30.19,East,98,7.0,-999.0,69,-99.99,,,0.00,0,weatherlink.com 1.10,2013-03-31 03:13:00,
2013-03-30 23:28:00,70.3,60.0,30.19,ESE,102,5.0,-999.0,70,-99.99,,,0.00,0,weatherlink.com 1.10,2013-03-31 03:28:00,
2013-03-30 23:43:00,70.3,60.0,30.19,East,101,8.0,-999.0,71,-99.99,,,0.00,0,weatherlink.com 1.10,2013-03-31 03:43:00,
2013-03-30 23:58:00,70.4,61.0,30.19,East,101,11.0,-999.0,71,-99.99,,,0.00,0,weatherlink.com 1.10,2013-03-31 03:58:00,